This demonstration page uses our WeatherBlox Daily Observations layout. Learn more.

Left ArrowRight Arrow

Hourly Observations for October 16, 2016

Temp ( °F °C ) Dew Point ( °F °C ) Humidity (%) Winds ( mph kmh ) Pressure ( in mb ) Visibility ( mi km ) Precip ( " mm )
12:15 am 00:15 Clear 52 11 50 10 94 94 N N/A 30.33 1027 10 16 N/A
12:35 am 00:35 Clear 52 11 50 10 94 94 S 3 6 30.33 1027 10 16 N/A
12:55 am 00:55 Clear 50 10 50 10 100 100 N N/A 30.33 1027 10 16 N/A
1:15 am 01:15 Clear 50 10 50 10 100 100 N N/A 30.33 1027 10 16 N/A
1:35 am 01:35 Clear 52 11 50 10 94 94 N N/A 30.33 1027 10 16 N/A
1:55 am 01:55 Clear 52 11 52 11 100 100 N N/A 30.33 1027 10 16 N/A
2:15 am 02:15 Clear 52 11 52 11 100 100 SSE 3 6 30.33 1027 10 16 N/A
2:35 am 02:35 Clear 52 11 52 11 100 100 N N/A 30.30 1026 10 16 N/A
2:55 am 02:55 Clear 50 10 50 10 100 100 N N/A 30.30 1026 10 16 N/A
3:15 am 03:15 Clear 48 9 48 9 100 100 N N/A 30.30 1026 10 16 N/A
3:35 am 03:35 Clear 50 10 50 10 100 100 N N/A 30.30 1026 10 16 N/A
3:55 am 03:55 Clear 50 10 50 10 100 100 N N/A 30.30 1026 10 16 N/A
4:15 am 04:15 Clear 52 11 52 11 100 100 N N/A 30.30 1026 10 16 N/A
4:35 am 04:35 Clear 50 10 50 10 100 100 S 3 6 30.30 1026 10 16 N/A
4:55 am 04:55 Clear 50 10 50 10 100 100 N N/A 30.30 1026 10 16 N/A
5:15 am 05:15 Clear 50 10 50 10 100 100 N N/A 30.30 1026 10 16 N/A
5:35 am 05:35 Clear 48 9 48 9 100 100 N N/A 30.30 1026 10 16 N/A
5:55 am 05:55 Clear 46 8 46 8 100 100 N N/A 30.30 1026 10 16 N/A
6:15 am 06:15 Mostly Cloudy 48 9 48 9 100 100 N N/A 30.30 1026 10 16 N/A
6:35 am 06:35 Cloudy 50 10 50 10 100 100 N N/A 30.27 1025 10 16 N/A
6:55 am 06:55 Cloudy with Mist and Fog 50 10 50 10 100 100 N N/A 30.27 1025 1 1 N/A
7:15 am 07:15 Cloudy with Fog 50 10 50 10 100 100 N N/A 30.27 1025 1 1 N/A
7:35 am 07:35 Cloudy with Fog 50 10 50 10 100 100 N N/A 30.27 1025 0 0 N/A
7:55 am 07:55 Cloudy with Fog 52 11 52 11 100 100 N N/A 30.27 1025 5 8 N/A
8:15 am 08:15 Cloudy with Fog 52 11 52 11 100 100 N N/A 30.27 1025 5 8 N/A
8:35 am 08:35 Cloudy with Fog 52 11 52 11 100 100 N N/A 30.27 1025 5 8 N/A
8:55 am 08:55 Cloudy with Fog 52 11 52 11 100 100 N N/A 30.27 1025 0 0 N/A
9:15 am 09:15 Cloudy with Fog 52 11 52 11 100 100 N N/A 30.27 1025 0 0 N/A
9:35 am 09:35 Cloudy with Fog 54 12 54 12 100 100 N N/A 30.24 1024 1 1 N/A
9:55 am 09:55 Cloudy 54 12 54 12 100 100 SW 3 6 30.24 1024 7 11 N/A
10:15 am 10:15 Mostly Cloudy 55 13 55 13 100 100 N N/A 30.24 1024 10 16 N/A
10:35 am 10:35 Partly Cloudy 59 15 57 14 94 94 N 3 6 30.24 1024 10 16 N/A
10:55 am 10:55 Mostly Cloudy 59 15 57 14 94 94 SSW 5 7 30.24 1024 10 16 N/A
11:15 am 11:15 Cloudy 61 16 57 14 88 88 SSW 7 11 30.21 1023 10 16 N/A
11:35 am 11:35 Cloudy 64 18 59 15 83 83 SSW 6 9 30.21 1023 10 16 N/A
11:55 am 11:55 Cloudy 66 19 59 15 78 78 S 5 7 30.21 1023 10 16 N/A
12:15 pm 12:15 Partly Cloudy 68 20 59 15 73 73 SSE 5 7 30.21 1023 10 16 N/A
12:35 pm 12:35 Partly Cloudy 70 21 59 15 69 69 S 9 15 30.18 1022 10 16 N/A
12:55 pm 12:55 Partly Cloudy 72 22 59 15 65 65 SSW 5 7 30.18 1022 10 16 N/A
1:15 pm 13:15 Partly Cloudy 72 22 59 15 65 65 S 9 15 30.15 1021 10 16 N/A
1:35 pm 13:35 Sunny 73 23 61 16 65 65 S 8 13 30.15 1021 10 16 N/A
1:55 pm 13:55 Sunny 73 23 61 16 65 65 SSE 9 15 30.15 1021 10 16 N/A
2:15 pm 14:15 Sunny 75 24 59 15 57 57 SSE 7 11 30.12 1020 10 16 N/A
2:35 pm 14:35 Sunny 75 24 59 15 57 57 SSE 7 11 30.12 1020 10 16 N/A
2:55 pm 14:55 Sunny 77 25 59 15 54 54 S 7 11 30.12 1020 10 16 N/A
3:15 pm 15:15 Sunny 77 25 59 15 54 54 SSW 7 11 30.09 1019 10 16 N/A
3:35 pm 15:35 Sunny 77 25 59 15 54 54 SW 7 11 30.09 1019 10 16 N/A
3:55 pm 15:55 Sunny 77 25 61 16 57 57 S 8 13 30.09 1019 10 16 N/A
4:15 pm 16:15 Sunny 77 25 61 16 57 57 SSW 7 11 30.09 1019 10 16 N/A
4:35 pm 16:35 Sunny 77 25 61 16 57 57 SSW 8 13 30.09 1019 10 16 N/A
4:55 pm 16:55 Sunny 77 25 61 16 57 57 S 7 11 30.09 1019 10 16 N/A
5:15 pm 17:15 Sunny 77 25 61 16 57 57 SSW 7 11 30.09 1019 10 16 N/A
5:35 pm 17:35 Sunny 75 24 61 16 61 61 SSW 6 9 30.06 1018 10 16 N/A
5:55 pm 17:55 Sunny 73 23 61 16 65 65 S 7 11 30.06 1018 10 16 N/A
6:15 pm 18:15 Sunny 72 22 61 16 69 69 S 5 7 30.06 1018 10 16 N/A
6:35 pm 18:35 Clear 72 22 61 16 69 69 S 6 9 30.06 1018 10 16 N/A
6:55 pm 18:55 Clear 70 21 61 16 73 73 S 7 11 30.06 1018 10 16 N/A
7:15 pm 19:15 Clear 70 21 61 16 73 73 SSE 7 11 30.06 1018 10 16 N/A
7:35 pm 19:35 Clear 68 20 61 16 78 78 S 6 9 30.06 1018 10 16 N/A
7:55 pm 19:55 Clear 68 20 63 17 83 83 S 5 7 30.06 1018 10 16 N/A
8:15 pm 20:15 Clear 70 21 63 17 78 78 N N/A 30.06 1018 10 16 N/A
8:35 pm 20:35 Clear 68 20 63 17 83 83 S 3 6 30.06 1018 10 16 N/A
8:55 pm 20:55 Clear 68 20 63 17 83 83 N N/A 30.06 1018 10 16 N/A
9:15 pm 21:15 Clear 68 20 63 17 83 83 S 3 6 30.06 1018 10 16 N/A
9:35 pm 21:35 Mostly Cloudy 66 19 63 17 88 88 S 3 6 30.06 1018 10 16 N/A
9:55 pm 21:55 Cloudy 66 19 63 17 88 88 S 3 6 30.09 1019 10 16 N/A
10:15 pm 22:15 Mostly Cloudy 64 18 63 17 94 94 S 3 6 30.09 1019 10 16 N/A
10:35 pm 22:35 Mostly Cloudy 63 17 63 17 100 100 SSW 3 6 30.09 1019 10 16 N/A
10:55 pm 22:55 Partly Cloudy 64 18 63 17 94 94 SSW 3 6 30.09 1019 10 16 N/A
11:15 pm 23:15 Clear 63 17 63 17 100 100 S 5 7 30.06 1018 10 16 N/A
11:35 pm 23:35 Clear 63 17 63 17 100 100 S 6 9 30.06 1018 10 16 N/A
11:55 pm 23:55 Clear 63 17 61 16 94 94 N N/A 30.06 1018 10 16 N/A

Powered by AerisWeather